J113924.74+164144.0
(Preview)
Cosmology News
0
535
Title: The curious case of J113924.74+164144.0: a possible new group of galaxies at z = 0.0693 Authors: Nirupam Roy, Chandreyee Sengupta, N. G. Kantharia J113924.74+164144.0 is an interesting galaxy at z = 0.0693, i.e. D_L ~ 305 Mpc, with tidal-tail-like extended optical features on both sides....
2M1938+4603
(Preview)
Stars/galaxy News
0
572
Title: 2M1938+4603: A rich, multimode pulsating sdB star with an eclipsing dM companion observed with Kepler Authors: R. H. Ostensen, E. M. Green, S. Bloemen, T. R. Marsh, J. B. Laird, M. Morris, E. Moriyama, R. Oreiro, M. D. Reed, S. D. Kawaler, C. Aerts, M. Vuckovic, P. Degroote, J. H. Telting, H. Kj...
Eumetsat Polar System, Second Generation
(Preview)
Mission News
0
672
The next-generation of Europe's polar orbiting weather satellites will fly in a two-spacecraft configuration. The present EPS has so far launched just the one platform, Metop-A, which went into space in 2006. Two reserve satellites, Metop-B and Metop-C, are built and held in storage. They are li...
Pan-American Advanced Studies Insitute on Quantum Gravity
(Preview)
Events
0
474
A Quantum Gravity summer school will be held at the Institute for Mathematics of the National Autonomous University Of Mexico (UNAM) in Morelia, Mexico June 23-July 3, 2010. Lectures at the school will describe current research in several approaches to quantum gravity, including strin...
Comet C/2010 G3 (WISE)
(
1 2
)
(Preview)
Solar System
10
6619
Orbital elements: C/2010 G3 (WISE) T 2010 Sept. 26.597 TT MPC q 4.66346 (2000.0) P Q Peri. 98.838 -0.333606 -0.681095 Node 316.408 -0.488599 +0.716199 e 1.0 Incl. 109.045 +0.806212 +0.152214 From 23 observations 2010 Apr. 14-16. [url=http://www.minorplanetcenter.org/mpec/K10/K10H04.htm...
Comet C/2010 FB87 (WISE-GARRADD)
(Preview)
Solar System
5
3312
Orbital elements: C/2010 FB87 (WISE-Garradd) T 2010 Nov. 6.444 TT MPC q 2.84781 (2000.0) P Q Peri. 264.805 -0.301775 -0.026029 Node 89.920 +0.294852 +0.948072 e 1.0 Incl. 107.631 -0.906639 +0.316990 From 30 observations 2010 Mar. 28-Apr. 24. [url=http://www.minorplanetcenter.org/mpec/K1...
Comet C/2010 D3 (WISE)
(Preview)
Solar System
5
3071
Orbital elements: C/2010 D3 (WISE) T 2010 Sept. 2.349 TT MPC q 4.23610 (2000.0) P Q Peri. 304.535 -0.332773 -0.081221 Node 255.193 -0.138853 -0.981204 e 1.0 Incl. 76.354 -0.932728 +0.175047 From 17 observations 2010 Feb. 26-Mar. 9. [url=http://www.minorplanetcenter.org/mpec/K10/K10E34.h...
Asteroid 2010 MQ1
(Preview)
Solar System
0
522
Orbital elements: 2010 MQ1 Earth MOID = 0.2012 AU Epoch 2010 July 23.0 TT = JDT 2455400.5 MPC M 38.10608 (2000.0) P Q n 0.36359151 Peri. 285.53282 -0.67374211 +0.44930968 a 1.9441371 Node 284.62420 -0.18284039 -0.87059159 e 0.5090146 Incl. 37.32406 -0.71598949 -0.20047717 P 2.71 H 20.1 G 0.15 U 9 [...
LMXB 2S 0918-549
(Preview)
Stars/galaxy News
0
1136
Title: The Likely Orbital Period of the Ultracompact Low-Mass X-Ray Binary 2S 0918-549 Authors: Jing Zhong, Zhongxiang Wang (Shanghai Astronomical Observatory) We report the discovery of the likely orbital period of the ultracompact low-mass X-ray binary (LMXB) 2S 0918-549. Using time-reso...
Zadko telescope
(Preview)
General news
1
652
Western Australia's Zadko telescope opens David Coward describes the capabilities of the Zadko telescope, recently opened north of Perth, Western Australia. Zadco is designed to look at flashes of light from the far edge of the universe. These are gamma ray bursts. Some are the result of the colla...
R-12 Dvina missile
(Preview)
Mission News
0
2638
The R-12 Dvina was a theatre ballistic missile developed and deployed by the Soviet Union during the Cold War. The first test was conducted at Kapustin Yar on 22 June 1957. Read more
Binocular Astronomy
(Preview)
Telescopes
0
3920
Do you own a pair of binoculars? Maybe you have them for bird watching or sight seeing? They are a great instrument for astronomy too. There are hundreds of objects that you can see with a pair of 7 x 35 or 10 x 50 binoculars. Some of the most spectacular objects are best seen in binoculars: the Pleiades, t...
Calabria volcano
(Preview)
Off Topic
0
2713
[url=http://www.ansamed.info/en/top/ME13.XAM18463.html]Read...
Jiwajirao Observatory
(Preview)
General news
0
406
Hundreds of people today watched their shadows disappear on 'Shanku Yantra' at 1228 hrs at Jiwajirao Observatory here as the Sun entered the sign of Cancer. Jiwajirao Observatory Superintendent Rajendra Prakash Gupt said June 21: is the longest day of the year with daytime being 13 hours 34 minut...
Asteroid 2010 LJ109
(Preview)
Solar System
0
2695
Orbital elements: 2010 LJ109 Epoch 2010 July 23.0 TT = JDT 2455400.5 MPC M 355.11846 (2000.0) P Q n 0.01988028 Peri. 152.91558 -0.93699901 +0.21056785 a 13.4954604 Node 42.40705 -0.34488154 -0.68456195 e 0.3290829 Incl. 24.41322 +0.05558395 -0.69787973 P 49.58 H 10.1 G 0.15 U 7 [url=http://www...
«First < 1
1896 1897 1898 1899 1900
2461 > Last» | Page
